This is the latest recevied weather packets stored in our database for station/object WX4ET. If no packets are shown the sender has not sent any weather packets the latest 10 day(s).
| Time | Temp. | Humidity | Pressure | Rain* | Wind** | Luminosity | Snow |
|---|---|---|---|---|---|---|---|
| 1777758532 | 14.44° C | 46% | 1009 hPa | 0 mm | - | 131 W/m² | - |
| 1777758228 | 15° C | 47% | 1009.4 hPa | 0 mm | - | 138 W/m² | - |
| 1777757926 | 15° C | 45% | 1009 hPa | 0 mm | - | 121 W/m² | - |
| 1777757623 | 15.56° C | 43% | 1008.9 hPa | 0 mm | - | 139 W/m² | - |
| 1777757322 | 15° C | 43% | 1008.7 hPa | 0 mm | - | 203 W/m² | - |
| 1777757020 | 15.56° C | 43% | 1008.9 hPa | 0 mm | - | 157 W/m² | - |
| 1777756717 | 15.56° C | 44% | 1008.9 hPa | 0 mm | - | 232 W/m² | - |
| 1777756412 | 15.56° C | 45% | 1008.9 hPa | 0 mm | - | 136 W/m² | - |
| 1777756110 | 15.56° C | 44% | 1009 hPa | 0 mm | - | 145 W/m² | - |
| 1777755807 | 15.56° C | 43% | 1008.9 hPa | 0 mm | - | 167 W/m² | - |
| 1777755504 | 15° C | 44% | 1008.8 hPa | 0 mm | - | 206 W/m² | - |
| 1777755200 | 15° C | 43% | 1008.6 hPa | 0 mm | - | 152 W/m² | - |
| 1777754897 | 15° C | 43% | 1008.7 hPa | 0 mm | - | 162 W/m² | - |
| 1777754594 | 15° C | 43% | 1008.8 hPa | 0 mm | - | 160 W/m² | - |
| 1777754291 | 15° C | 44% | 1008.7 hPa | 0 mm | - | 161 W/m² | - |
| 1777753989 | 15.56° C | 44% | 1008.7 hPa | 0 mm | - | 155 W/m² | - |
| 1777753689 | 15.56° C | 44% | 1008.7 hPa | 0 mm | - | 180 W/m² | - |
| 1777753387 | 15.56° C | 43% | 1008.6 hPa | 0 mm | - | 286 W/m² | - |
| 1777753085 | 15.56° C | 44% | 1008.7 hPa | 0 mm | - | 193 W/m² | - |
| 1777752781 | 15.56° C | 43% | 1008.9 hPa | 0 mm | - | 189 W/m² | - |
| 1777752477 | 16.11° C | 44% | 1009.1 hPa | 0 mm | - | 226 W/m² | - |
| 1777752173 | 15.56° C | 43% | 1008.9 hPa | 0 mm | - | 218 W/m² | - |
| 1777751872 | 15.56° C | 42% | 1008.9 hPa | 0 mm | - | 189 W/m² | - |
| 1777751568 | 15.56° C | 41% | 1008.8 hPa | 0 mm | - | 678 W/m² | - |
| 1777751264 | 15.56° C | 41% | 1008.9 hPa | 0 mm | - | 167 W/m² | - |
* Rain latest hour (hover to see other rain measurements)
** Current wind speed in m/s (hover to see current wind gust speed)